Total_Precipitation_Accumulation
0.00 0.00 0.00 0.00 0.00 0.00 0.00 0.00 0.00 0.00 0.00 0.00 0.00 0.00 0.00 0.00 0.00 0.00 0.00 0.03 0.01 0.02 0.01 0.01 0.01 0.01 0.02 0.02 0.03 0.03 0.03 0.02 0.02 0.03 0.03 0.04 0.02 0.04 0.06 0.07 0.03 0.04 0.06 0.06 0.05 0.11 0.20 0.13 0.16 0.10 0.12 0.22 0.12 0.18 0.29 0.10 0.19 0.24 0.31 0.44 0.46 0.28 0.39 0.48 0.40 0.18 0.08 0.03 0.04 0.03 0.03 0.11 0.24 0.42 0.56 0.54 0.46 0.38 0.27 0.35 0.23 0.21 0.16 0.18 0.20
0.19 0.06 0.01 0.00 0.00 0.00 0.00 0.00 0.00 0.00 0.00 0.00 0.00 0.00 0.00 0.00 0.00 0.00 0.00 0.00 0.01 0.01 0.00 0.01 0.01 0.01 0.02 0.02 0.06 0.02 0.07 0.03 0.05 0.05 0.03 0.03 0.02 0.02 0.03 0.07 0.04 0.05 0.05 0.04 0.10 0.08 0.09 0.08 0.12 0.08 0.09 0.16 0.14 0.25 0.27 0.18 0.17 0.24 0.45 0.34 0.35 0.25 0.28 0.44 0.37 0.38 0.15 0.07 0.05 0.07 0.02 0.04 0.07 0.06 0.46 0.44 0.26 0.43 0.29 0.24 0.28 0.38 0.25 0.29 0.31
0.42 0.50 0.32 0.10 0.01 0.01 0.00 0.00 0.00 0.00 0.00 0.00 0.00 0.00 0.00 0.00 0.00 0.00 0.00 0.00 0.00 0.01 0.01 0.01 0.00 0.01 0.02 0.04 0.05 0.03 0.02 0.05 0.05 0.04 0.06 0.05 0.05 0.03 0.02 0.03 0.04 0.06 0.07 0.11 0.07 0.10 0.12 0.14 0.12 0.12 0.12 0.16 0.16 0.20 0.15 0.20 0.26 0.28 0.18 0.19 0.28 0.36 0.26 0.33 0.26 0.35 0.16 0.08 0.04 0.06 0.03 0.05 0.06 0.05 0.09 0.05 0.28 0.47 0.41 0.41 0.51 0.63 0.53 0.49 0.30
0.55 0.42 0.47 0.38 0.04 0.00 0.00 0.01 0.00 0.00 0.00 0.01 0.00 0.00 0.00 0.00 0.00 0.00 0.00 0.01 0.01 0.01 0.02 0.01 0.01 0.04 0.01 0.02 0.01 0.02 0.03 0.06 0.08 0.06 0.07 0.08 0.08 0.05 0.07 0.06 0.09 0.10 0.10 0.08 0.05 0.04 0.06 0.06 0.07 0.11 0.10 0.12 0.11 0.29 0.16 0.18 0.29 0.23 0.41 0.26 0.21 0.20 0.30 0.31 0.38 0.33 0.19 0.20 0.05 0.04 0.02 0.07 0.07 0.03 0.02 0.03 0.09 0.37 0.31 0.25 0.32 0.41 0.25 0.30 0.26
0.74 0.69 0.65 0.59 0.30 0.03 0.01 0.03 0.02 0.05 0.03 0.01 0.00 0.00 0.00 0.00 0.00 0.01 0.00 0.00 0.01 0.00 0.01 0.01 0.01 0.04 0.02 0.02 0.01 0.03 0.05 0.03 0.03 0.07 0.05 0.07 0.06 0.07 0.16 0.12 0.07 0.07 0.05 0.06 0.04 0.07 0.10 0.13 0.08 0.09 0.14 0.24 0.11 0.20 0.23 0.41 0.22 0.42 0.27 0.27 0.21 0.43 0.46 0.24 0.28 0.31 0.23 0.25 0.12 0.05 0.05 0.05 0.04 0.06 0.06 0.11 0.12 0.12 0.17 0.26 0.22 0.23 0.30 0.32 0.21
0.95 0.76 0.80 0.71 0.84 0.32 0.08 0.03 0.06 0.09 0.07 0.01 0.01 0.00 0.00 0.00 0.00 0.00 0.03 0.02 0.02 0.00 0.01 0.01 0.01 0.01 0.01 0.01 0.01 0.02 0.10 0.08 0.10 0.07 0.09 0.06 0.05 0.06 0.06 0.05 0.06 0.03 0.03 0.03 0.06 0.09 0.09 0.10 0.05 0.12 0.14 0.11 0.15 0.33 0.20 0.18 0.41 0.23 0.33 0.43 0.34 0.34 0.54 0.26 0.33 0.29 0.37 0.23 0.20 0.23 0.13 0.12 0.07 0.06 0.07 0.09 0.11 0.14 0.16 0.21 0.23 0.18 0.31 0.30 0.17
1.76 1.64 0.99 0.85 1.09 0.76 0.43 0.19 0.12 0.21 0.12 0.17 0.03 0.03 0.05 0.04 0.04 0.02 0.01 0.00 0.00 0.00 0.01 0.01 0.01 0.01 0.01 0.01 0.10 0.05 0.12 0.13 0.18 0.11 0.13 0.07 0.07 0.07 0.04 0.03 0.05 0.07 0.02 0.03 0.03 0.03 0.07 0.12 0.08 0.12 0.13 0.12 0.11 0.15 0.12 0.14 0.15 0.20 0.22 0.29 0.46 0.33 0.43 0.30 0.42 0.43 0.64 0.44 0.37 0.32 0.18 0.11 0.19 0.18 0.11 0.16 0.12 0.12 0.22 0.54 0.44 0.15 0.33 0.20 0.23
1.48 1.36 1.52 1.32 1.83 1.44 1.36 0.88 0.98 0.51 0.34 0.10 0.02 0.08 0.04 0.02 0.02 0.02 0.00 0.00 0.00 0.01 0.01 0.01 0.01 0.01 0.00 0.02 0.03 0.07 0.09 0.16 0.13 0.16 0.17 0.12 0.09 0.04 0.06 0.15 0.11 0.05 0.04 0.03 0.03 0.05 0.03 0.06 0.09 0.21 0.26 0.13 0.16 0.21 0.30 0.31 0.50 0.54 0.49 0.57 0.41 0.54 0.52 0.64 0.49 0.49 0.53 0.43 0.25 0.26 0.26 0.17 0.17 0.10 0.13 0.16 0.31 0.34 0.29 0.22 0.23 0.32 0.58 0.41 0.19
1.12 0.58 0.71 1.36 0.62 0.98 1.55 1.32 1.15 0.59 0.80 0.62 0.09 0.06 0.02 0.02 0.04 0.05 0.03 0.05 0.04 0.02 0.01 0.01 0.01 0.03 0.08 0.03 0.03 0.10 0.18 0.16 0.18 0.24 0.38 0.28 0.09 0.04 0.05 0.03 0.11 0.07 0.04 0.05 0.04 0.04 0.05 0.05 0.05 0.22 0.33 0.30 0.19 0.23 0.26 0.42 0.72 0.94 0.84 1.17 0.81 0.81 0.57 0.36 0.45 0.39 0.52 0.52 0.53 0.45 0.28 0.26 0.24 0.24 0.17 0.35 0.42 0.17 0.15 0.17 0.20 0.33 0.79 0.54 0.33
0.69 0.93 1.10 0.84 0.90 1.53 1.30 1.25 1.09 0.73 0.34 0.36 0.61 0.50 0.15 0.16 0.11 0.08 0.09 0.11 0.03 0.02 0.03 0.02 0.01 0.01 0.01 0.01 0.06 0.11 0.15 0.17 0.25 0.13 0.11 0.06 0.04 0.05 0.02 0.03 0.06 0.04 0.05 0.04 0.03 0.04 0.07 0.11 0.08 0.08 0.11 0.09 0.11 0.15 0.15 0.22 0.21 0.23 0.33 0.66 0.58 0.56 0.51 0.43 0.59 0.35 0.45 0.45 0.38 0.48 0.53 0.27 0.19 0.27 0.22 0.14 0.27 0.16 0.22 0.42 0.42 0.21 0.52 0.56 0.53
0.67 0.21 0.85 0.67 1.18 1.62 1.40 0.99 0.86 1.15 0.86 0.49 0.58 0.59 0.40 0.24 0.22 0.08 0.04 0.05 0.05 0.04 0.02 0.02 0.03 0.03 0.02 0.04 0.06 0.07 0.19 0.31 0.10 0.11 0.05 0.01 0.02 0.02 0.03 0.04 0.02 0.03 0.09 0.07 0.04 0.04 0.08 0.08 0.14 0.27 0.28 0.16 0.38 0.55 0.52 0.10 0.12 0.23 0.10 0.17 0.39 0.54 0.62 0.41 0.40 0.35 0.49 0.50 0.35 0.29 0.45 0.30 0.23 0.27 0.16 0.23 0.40 0.28 0.29 0.29 0.26 0.28 0.35 0.45 0.30
0.85 0.59 0.54 0.68 1.49 1.35 0.59 0.31 0.59 0.86 0.95 1.47 1.21 0.37 0.19 0.27 0.17 0.12 0.04 0.04 0.03 0.01 0.02 0.02 0.05 0.08 0.00 0.01 0.03 0.05 0.30 0.12 0.08 0.05 0.02 0.01 0.02 0.02 0.02 0.03 0.03 0.02 0.05 0.09 0.07 0.08 0.07 0.24 0.40 0.41 0.38 0.41 0.99 0.98 0.64 0.31 0.49 0.51 0.18 0.05 0.04 0.07 0.20 0.37 0.51 0.57 0.61 0.51 0.36 0.28 0.22 0.20 0.15 0.13 0.12 0.15 0.20 0.26 0.26 0.29 0.54 0.32 0.38 0.30 0.25
1.07 0.63 0.76 1.46 2.09 1.02 0.67 0.83 1.31 1.10 1.14 1.00 0.79 0.41 0.29 0.07 0.05 0.09 0.42 0.31 0.02 0.11 0.07 0.01 0.01 0.01 0.01 0.01 0.05 0.04 0.30 0.17 0.04 0.01 0.00 0.00 0.03 0.01 0.02 0.03 0.03 0.06 0.05 0.06 0.09 0.11 0.45 0.55 0.45 0.60 0.56 0.48 0.28 0.34 0.42 0.46 0.12 0.10 0.12 0.19 0.46 0.12 0.05 0.03 0.06 0.13 0.40 0.63 0.38 0.31 0.22 0.16 0.21 0.20 0.18 0.20 0.14 0.26 0.31 1.03 1.25 1.13 0.53 0.45 0.19
1.22 1.50 1.94 1.76 1.29 0.59 0.69 0.99 1.01 0.81 0.76 0.87 0.26 0.16 0.14 0.26 0.32 0.50 0.60 0.70 0.03 0.01 0.01 0.01 0.01 0.01 0.05 0.18 0.07 0.04 0.19 0.15 0.00 0.00 0.00 0.00 0.00 0.02 0.02 0.06 0.07 0.05 0.05 0.05 0.14 0.48 0.72 0.61 0.48 0.55 0.43 0.59 0.67 0.46 0.34 0.22 0.15 0.20 0.09 0.08 0.12 0.09 0.18 0.22 0.06 0.02 0.07 0.24 0.27 0.29 0.16 0.12 0.25 0.22 0.27 0.22 0.35 0.26 0.34 0.71 1.79 1.55 0.76 0.35 0.19
1.17 1.45 1.16 1.34 1.03 1.13 0.78 1.36 1.50 1.22 0.84 0.65 0.64 0.31 0.44 0.49 0.79 1.26 1.05 0.35 0.10 0.05 0.04 0.05 0.00 0.21 0.35 0.22 0.12 0.08 0.09 0.02 0.00 0.00 0.00 0.00 0.03 0.03 0.02 0.06 0.10 0.07 0.12 0.09 0.43 0.94 0.85 0.70 0.35 0.52 0.46 0.29 0.26 0.10 0.17 0.23 0.14 0.14 0.15 0.09 0.05 0.02 0.03 0.06 0.13 0.18 0.21 0.15 0.19 0.18 0.19 0.37 0.38 0.35 0.34 0.25 0.31 0.25 0.37 0.42 0.73 1.33 1.24 0.76 0.70
0.44 0.67 0.86 0.58 0.90 1.24 1.33 1.69 1.32 0.99 0.90 0.78 0.68 0.75 0.87 0.98 0.78 1.28 0.85 0.53 0.08 0.11 0.07 0.01 0.08 0.24 0.15 0.12 0.06 0.02 0.04 0.01 0.00 0.01 0.02 0.01 0.03 0.03 0.07 0.08 0.07 0.12 0.08 0.35 0.81 1.16 0.85 0.54 0.60 0.52 0.41 0.46 0.12 0.07 0.05 0.06 0.07 0.07 0.07 0.09 0.09 0.05 0.02 0.02 0.02 0.04 0.09 0.15 0.24 0.82 0.46 0.30 0.25 0.42 0.22 0.19 0.28 0.35 0.47 0.61 0.72 1.55 1.97 1.71 1.20
0.36 0.41 0.26 1.05 1.15 1.25 1.35 1.15 1.40 0.61 0.94 0.72 0.62 0.55 0.71 1.51 1.08 0.96 0.64 0.50 0.51 0.17 0.08 0.10 0.24 0.23 0.10 0.07 0.07 0.05 0.08 0.05 0.05 0.14 0.03 0.02 0.03 0.06 0.11 0.06 0.06 0.12 0.74 0.37 0.73 0.55 0.36 0.61 0.47 0.59 0.52 0.20 0.08 0.04 0.06 0.04 0.05 0.05 0.08 0.08 0.10 0.07 0.05 0.05 0.02 0.02 0.06 0.15 0.35 0.31 0.25 0.27 0.17 0.12 0.18 0.50 0.79 0.98 1.61 1.16 1.09 2.16 2.40 0.90 0.39
0.17 0.13 0.38 0.36 1.06 1.43 1.34 0.94 0.61 0.70 1.39 1.36 1.47 1.21 1.07 1.05 1.24 0.91 1.13 0.72 0.59 0.26 0.28 0.22 0.42 0.19 0.12 0.07 0.07 0.12 0.06 0.09 0.25 0.13 0.04 0.02 0.04 0.09 0.11 0.08 0.10 0.77 0.68 0.37 0.54 0.46 0.54 0.44 0.64 0.31 0.22 0.26 0.12 0.07 0.05 0.06 0.06 0.05 0.07 0.10 0.12 0.11 0.07 0.05 0.08 0.22 0.50 0.45 0.38 0.48 0.16 0.11 0.08 0.07 0.08 0.09 0.18 1.06 1.84 1.21 0.49 1.15 1.25 0.63 0.51
0.43 0.11 0.79 1.27 0.72 0.30 0.38 0.46 0.41 0.32 0.20 0.69 1.21 1.30 1.28 0.82 1.14 1.25 1.17 0.62 0.48 0.29 0.25 0.20 0.32 0.26 0.24 0.16 0.04 0.23 0.39 0.39 0.24 0.09 0.04 0.03 0.08 0.12 0.16 0.25 0.35 0.73 0.67 0.74 0.74 0.50 0.27 0.32 0.26 0.23 0.26 0.23 0.15 0.09 0.08 0.08 0.11 0.15 0.17 0.17 0.15 0.10 0.05 0.09 0.35 0.40 0.62 0.49 0.27 0.46 0.15 0.11 0.15 0.11 0.06 0.04 0.05 0.11 0.52 0.80 0.64 0.84 1.19 1.66 1.83
1.88 1.02 1.33 0.65 0.27 0.07 0.08 0.07 0.15 0.24 0.20 0.29 1.01 1.07 0.83 1.28 1.43 0.64 0.73 0.76 0.54 0.47 0.30 0.32 0.42 0.43 0.17 0.16 0.19 0.44 1.00 1.03 0.78 0.27 0.13 0.03 0.02 0.12 0.50 0.25 0.22 0.49 0.33 0.10 0.24 0.17 0.18 0.27 0.26 0.20 0.21 0.21 0.19 0.18 0.16 0.16 0.24 0.25 0.30 0.28 0.27 0.21 0.16 0.57 0.81 0.35 0.35 0.33 0.22 0.14 0.14 0.10 0.10 0.13 0.22 0.11 0.06 0.09 0.12 0.23 0.40 0.76 1.69 2.12 1.72
1.26 1.43 0.67 0.36 0.19 0.07 0.07 0.05 0.04 0.08 0.02 0.29 0.84 0.99 0.74 1.04 0.96 1.04 0.85 0.79 0.44 0.26 0.26 0.30 0.38 0.61 0.42 0.30 0.25 0.77 0.80 0.81 0.75 0.37 0.25 0.20 0.09 0.22 0.17 0.12 0.30 0.28 0.14 0.12 0.16 0.23 0.34 0.32 0.38 0.27 0.22 0.19 0.20 0.23 0.34 0.35 0.26 0.32 0.41 0.51 0.54 0.49 0.78 0.60 0.35 0.35 0.44 0.36 0.31 0.31 0.41 0.42 0.44 0.20 0.26 0.36 0.28 0.16 0.11 0.13 0.22 0.91 1.60 1.44 0.94
0.94 0.34 0.08 0.31 0.16 0.08 0.10 0.09 0.04 0.11 0.43 0.55 1.03 1.43 2.01 0.93 0.65 0.48 0.53 0.46 0.28 0.25 0.56 0.43 0.39 0.21 0.51 0.57 0.51 0.98 0.95 0.67 0.78 0.53 0.36 0.25 0.16 0.10 0.05 0.07 0.17 0.27 0.13 0.14 0.16 0.26 0.37 0.34 0.31 0.29 0.26 0.20 0.22 0.39 0.57 0.59 0.73 0.63 0.69 0.77 1.61 1.42 0.96 0.92 0.76 0.45 0.73 0.81 0.85 0.71 1.01 1.38 0.54 0.37 0.31 0.27 0.23 0.26 0.21 0.29 0.67 0.72 0.47 0.61 0.52
0.57 0.64 0.52 0.62 0.44 0.38 0.30 0.14 0.29 0.53 0.57 1.06 1.60 1.64 1.38 1.02 0.81 1.01 1.01 0.59 0.23 0.67 0.19 0.30 0.54 0.47 0.63 0.78 1.24 1.17 1.38 0.77 0.71 0.75 0.52 0.26 0.14 0.06 0.03 0.05 0.02 0.06 0.11 0.11 0.18 0.24 0.37 0.30 0.31 0.21 0.22 0.20 0.23 0.33 0.55 0.62 1.19 1.18 0.96 1.24 1.02 0.94 1.13 1.03 0.80 0.82 0.88 0.94 1.44 1.38 2.04 1.56 0.97 0.83 0.54 0.57 0.57 0.51 0.55 0.65 0.69 0.55 0.43 0.39 0.36
0.15 0.42 0.63 0.91 0.78 0.77 0.97 0.33 0.23 0.28 0.41 1.00 0.76 0.74 0.46 0.35 0.42 0.74 0.40 0.20 0.36 0.49 0.80 0.46 0.62 0.98 0.77 0.55 0.78 1.25 1.40 1.27 1.10 0.65 0.43 0.39 0.39 0.14 0.05 0.06 0.06 0.04 0.08 0.08 0.13 0.20 0.28 0.25 0.25 0.21 0.19 0.25 0.35 0.45 0.54 1.45 1.51 0.71 1.11 2.08 0.65 0.89 1.36 1.83 1.21 1.05 1.69 1.24 1.27 1.84 1.98 1.78 1.76 1.60 1.29 0.92 0.86 1.37 1.48 1.03 0.66 0.50 0.46 0.60 0.53
0.14 0.22 0.13 0.20 0.21 0.37 0.36 0.39 0.72 0.88 0.74 0.50 0.51 0.15 0.58 0.90 0.65 0.37 0.43 0.49 0.43 0.37 0.41 0.73 1.10 1.29 0.83 1.26 1.73 1.63 1.01 0.93 1.37 1.01 0.35 0.33 0.39 0.23 0.11 0.12 0.07 0.05 0.05 0.05 0.09 0.14 0.19 0.20 0.19 0.21 0.18 0.24 0.31 0.52 1.49 0.85 0.62 1.28 1.00 0.75 0.91 0.99 0.82 1.30 1.80 1.61 1.94 1.92 2.09 2.05 1.47 1.42 1.61 1.19 1.27 1.66 1.37 1.33 1.00 0.81 0.57 0.68 0.58 0.64 0.75
0.10 0.07 0.08 0.07 0.41 0.24 0.27 0.41 0.76 1.28 0.85 0.65 0.34 0.27 0.47 0.38 0.20 0.27 0.42 0.20 0.33 1.10 1.44 1.08 0.69 0.63 0.92 1.68 1.33 1.16 1.11 1.55 0.81 0.71 0.28 0.18 0.31 0.31 0.21 0.22 0.48 0.33 0.16 0.09 0.04 0.03 0.15 0.24 0.22 0.18 0.19 0.13 0.23 1.47 0.63 0.97 0.83 0.70 0.67 0.60 0.55 0.76 0.78 1.22 1.68 1.93 1.89 2.45 2.56 2.81 1.81 1.18 1.14 1.79 1.70 1.79 1.98 2.40 1.49 1.47 1.25 0.98 0.74 0.72 1.07
0.31 0.29 0.06 0.17 0.25 0.21 0.32 0.32 0.59 1.12 0.40 0.55 0.38 0.34 0.26 0.16 0.24 0.35 0.34 0.55 0.76 0.85 0.68 0.67 1.18 1.07 1.22 1.60 1.14 1.13 1.05 0.58 0.63 0.43 0.55 0.30 0.17 0.38 0.70 0.69 0.44 0.49 0.74 0.42 0.28 0.11 0.13 0.31 0.13 0.13 0.17 0.32 0.80 0.63 1.54 0.98 0.61 0.56 0.79 0.70 0.63 0.54 0.61 0.78 1.17 2.07 2.58 3.03 2.38 2.15 2.39 1.80 1.52 0.90 0.93 1.12 1.22 1.39 2.01 1.91 1.29 1.65 1.15 0.93 1.32
0.46 0.51 0.51 0.45 0.40 0.45 0.65 0.58 0.45 0.35 0.44 0.35 0.19 0.18 0.25 0.41 0.41 0.41 0.47 0.97 0.93 0.94 0.68 0.86 0.97 0.96 1.10 0.51 0.83 0.82 0.50 0.59 0.27 0.37 0.59 0.73 0.78 0.48 0.44 0.74 0.82 0.63 0.49 0.37 0.32 0.46 0.99 0.68 0.87 0.99 0.51 0.48 0.41 0.64 0.41 0.51 0.53 0.59 0.58 0.65 0.66 0.56 0.38 0.39 0.91 1.55 1.76 2.52 3.37 2.76 2.13 1.71 1.13 1.12 1.42 1.25 1.09 1.90 2.12 1.62 1.53 1.32 1.83 2.43 2.04
1.24 0.92 0.84 0.93 0.98 0.99 1.20 0.63 0.59 0.26 0.24 0.22 0.22 0.25 0.43 0.49 0.36 0.48 0.42 0.89 1.12 1.08 1.51 1.39 1.09 1.21 1.28 1.59 1.27 0.69 0.27 0.37 0.49 0.58 0.76 0.94 1.06 0.67 1.00 1.26 1.35 1.16 1.08 1.11 1.04 0.74 0.81 1.36 1.53 1.33 0.68 0.82 0.36 0.17 0.26 0.35 0.43 0.49 0.53 0.63 0.98 0.71 0.67 0.79 0.61 0.96 1.46 2.00 2.16 2.35 2.64 1.89 1.77 1.66 1.45 1.16 1.64 1.64 2.20 2.31 2.24 1.76 2.26 2.46 1.83
1.75 1.49 1.23 1.33 1.21 0.90 1.15 1.12 0.82 0.34 0.25 0.70 0.46 1.29 1.26 1.23 1.10 0.89 1.04 1.18 1.08 1.19 1.85 1.30 1.09 1.48 1.81 1.55 0.90 1.22 0.90 0.87 1.49 1.66 1.76 2.13 2.23 1.82 1.14 0.84 1.05 0.93 0.83 0.85 0.65 1.43 1.25 0.73 0.99 1.25 1.32 0.96 0.50 0.31 0.32 0.21 0.30 0.37 0.43 0.45 0.64 0.86 0.77 0.87 0.93 1.23 1.98 2.15 2.01 1.68 1.47 1.77 1.74 1.86 1.59 1.37 1.51 1.55 2.26 2.94 3.19 2.47 2.15 3.34 3.32
1.15 1.00 1.03 1.13 0.77 0.87 0.66 0.63 0.84 0.99 0.94 0.84 1.05 0.75 0.42 0.26 0.58 1.00 0.90 0.77 0.95 0.94 1.36 1.68 0.82 0.88 1.01 1.24 1.23 0.84 1.58 3.48 3.20 2.88 2.69 2.49 1.13 1.15 0.94 0.58 0.73 0.60 0.72 1.59 1.55 1.65 1.56 1.42 1.22 1.10 0.86 0.40 0.22 0.12 0.24 0.41 0.58 0.68 0.93 0.80 0.81 1.02 1.12 1.33 1.64 1.62 1.42 1.31 1.53 1.64 1.69 1.52 1.39 1.72 1.84 1.76 2.10 2.37 2.23 2.46 2.98 3.53 3.70 3.21 3.99
1.28 1.61 1.34 1.14 1.25 1.37 1.49 1.23 0.81 1.04 1.54 1.19 1.11 0.90 0.94 1.00 0.37 0.20 0.26 0.57 0.73 0.92 0.69 0.47 0.52 0.63 0.93 1.33 1.23 2.89 1.90 1.33 1.45 1.42 1.52 1.56 1.67 1.93 2.53 2.66 2.92 2.95 2.86 2.50 2.03 1.99 2.52 2.01 1.35 1.15 1.03 0.94 0.90 0.92 0.89 0.71 0.50 0.51 0.68 1.12 1.01 0.97 1.17 1.13 1.08 1.21 1.17 1.24 1.45 1.53 1.70 1.70 1.49 1.53 1.93 2.10 2.29 2.66 2.58 2.41 2.74 3.01 3.82 3.43 2.94
2.24 2.02 2.35 2.47 2.84 2.91 2.58 2.11 1.69 1.73 1.82 1.30 1.65 1.71 2.09 1.70 1.77 0.96 1.20 0.94 0.60 0.76 0.42 0.54 0.90 1.08 0.85 0.95 1.49 1.47 1.41 1.74 2.22 2.20 1.43 1.12 1.11 1.35 2.46 3.16 3.99 4.08 3.27 3.18 2.91 2.71 1.79 1.39 1.51 1.29 0.81 0.86 0.63 0.80 0.88 0.96 1.20 1.31 1.26 1.11 0.90 1.07 1.10 1.61 1.67 1.56 1.67 1.54 1.47 1.77 1.95 2.27 2.29 2.19 2.41 2.30 2.76 2.51 2.69 2.56 2.17 2.28 2.82 3.40 3.23
0.48 1.11 1.44 1.71 1.77 1.81 1.99 2.50 3.26 3.85 4.22 3.20 1.90 1.73 1.88 1.51 1.55 1.70 1.31 1.52 1.84 1.58 1.19 1.78 1.97 1.74 1.50 1.59 1.32 0.74 0.87 0.68 0.90 0.68 0.43 0.89 1.40 2.11 2.72 2.49 1.81 1.87 1.64 1.88 2.21 2.01 1.54 1.07 1.03 0.95 0.75 0.88 1.22 1.51 1.94 1.66 1.04 1.03 1.34 1.48 1.27 1.64 2.06 1.97 2.06 1.74 1.97 1.85 1.77 1.79 2.10 2.20 2.76 2.85 2.32 2.53 2.20 1.95 1.94 1.94 2.39 2.78 2.70 2.77 3.26
0.30 0.33 0.36 0.45 1.04 1.56 2.18 2.23 2.14 3.42 3.76 3.46 4.05 3.60 2.73 2.91 3.38 2.10 1.38 1.75 1.91 1.45 1.53 1.15 1.66 1.81 1.50 1.52 0.95 1.14 1.08 1.45 1.77 1.33 1.03 1.00 1.28 1.94 2.00 2.43 3.06 2.61 2.31 2.70 2.30 1.78 1.55 1.43 1.21 1.59 1.69 1.79 1.47 1.28 1.43 1.30 1.30 1.45 1.60 1.88 2.39 2.35 2.16 2.50 1.91 1.94 2.17 2.12 2.01 2.08 2.08 2.31 3.02 2.30 2.41 2.74 2.70 2.58 2.27 2.07 1.69 1.78 1.90 2.15 2.55
1.22 1.14 1.05 1.50 1.63 1.27 1.16 1.85 3.09 2.23 2.58 2.22 1.67 2.36 2.76 2.82 2.82 3.56 3.06 1.78 1.90 2.16 1.84 2.00 1.57 1.09 1.81 1.73 1.19 1.06 1.10 1.34 1.06 1.77 2.01 2.05 1.85 1.35 1.74 1.63 2.49 2.01 1.89 1.91 2.07 1.67 1.48 1.34 1.29 1.78 1.70 1.99 1.92 1.63 1.73 2.00 1.74 1.87 1.79 2.17 2.39 2.39 2.74 2.75 2.47 2.47 2.35 2.13 2.08 1.91 2.01 2.53 2.46 2.25 2.48 2.87 2.67 2.44 2.70 2.51 2.78 2.79 2.94 2.90 2.62
0.58 0.69 1.08 1.74 2.29 2.33 1.83 1.71 1.62 1.55 1.49 1.59 1.60 1.53 1.51 1.64 1.41 1.89 2.59 3.88 2.89 3.09 3.30 2.77 2.33 1.88 1.14 2.32 3.27 2.52 1.54 1.41 1.46 1.39 1.23 1.58 1.46 1.45 2.13 1.92 1.97 2.36 2.53 2.67 1.90 1.98 2.25 1.96 1.76 1.75 1.77 1.73 1.80 1.86 1.53 2.24 2.40 2.53 2.59 3.16 2.79 2.94 2.89 2.56 2.45 2.23 2.38 2.21 2.18 2.23 2.34 2.43 2.74 2.92 3.15 3.40 3.60 3.75 3.11 2.56 2.23 2.34 2.65 3.59 3.86
0.63 0.77 1.05 1.49 2.52 2.53 1.27 1.23 1.31 1.25 1.47 1.55 2.47 2.06 1.77 1.55 1.62 1.53 1.39 1.53 1.70 2.12 2.69 2.74 3.09 2.82 1.73 1.88 1.46 1.95 3.42 2.55 1.83 1.80 1.90 1.38 1.29 1.87 2.16 3.56 2.88 2.47 1.67 1.93 2.34 1.57 1.60 1.47 1.83 1.91 2.29 2.24 2.24 2.12 2.75 2.73 2.58 2.37 2.20 2.42 2.35 2.06 2.05 2.01 1.84 1.92 1.92 1.99 1.94 2.07 1.97 2.55 3.65 3.27 4.21 4.91 2.98 2.40 2.58 3.00 3.36 3.13 2.53 2.43 2.69
0.82 1.02 1.22 2.02 1.61 1.01 1.17 1.42 1.11 1.08 1.19 1.27 1.18 1.20 1.11 1.00 0.81 1.15 1.33 1.74 1.85 1.56 1.21 1.15 1.03 1.30 1.23 1.06 1.31 1.61 1.71 2.40 1.94 1.44 2.19 2.96 2.48 2.88 2.84 2.45 1.32 1.54 1.83 1.56 1.68 1.99 1.67 1.58 1.63 1.67 2.00 2.35 2.32 2.54 2.72 2.48 2.48 2.64 2.40 2.16 2.23 2.25 2.47 2.95 2.89 2.76 2.22 2.21 2.88 3.22 3.95 3.42 3.00 3.46 4.21 2.15 2.72 2.35 1.86 2.14 2.65 2.85 3.30 3.12 3.00
1.24 1.10 0.56 0.30 0.40 0.48 0.65 0.68 0.67 0.60 0.69 0.71 1.12 1.16 1.05 1.37 1.03 1.13 1.39 1.52 1.00 1.02 0.95 1.05 1.01 0.83 0.84 0.79 0.76 0.75 0.76 0.75 0.84 0.74 0.85 1.39 2.79 4.52 3.67 2.17 1.58 1.68 1.40 1.52 1.48 1.31 1.70 1.98 1.57 1.58 1.58 2.01 1.80 1.74 1.64 2.82 2.66 2.64 2.68 2.33 2.04 1.78 1.52 1.70 1.86 1.83 2.29 2.74 3.22 3.16 2.73 3.47 3.88 4.60 2.72 3.20 2.61 2.21 3.28 2.78 2.12 1.95 2.18 2.15 2.20
1.44 0.67 0.62 0.56 0.60 0.53 0.73 0.72 0.78 0.92 1.10 1.33 1.34 1.39 0.96 0.81 1.03 0.83 0.70 0.55 0.89 1.12 1.06 1.27 1.02 1.02 0.85 0.78 0.69 0.80 1.52 2.18 3.00 1.25 1.67 2.09 1.12 0.91 1.16 1.40 1.36 1.41 1.26 1.30 1.77 2.03 1.90 1.91 1.82 1.54 1.80 2.28 2.88 3.60 3.72 2.63 2.27 2.51 3.25 3.86 3.49 2.71 2.39 2.04 2.45 2.51 1.85 1.84 2.05 1.84 1.69 1.88 2.84 1.80 1.67 2.58 2.23 1.61 1.27 1.53 1.44 1.21 1.16 1.08 1.12
1.54 2.01 1.33 1.00 0.58 0.88 0.66 1.24 1.00 0.53 0.66 0.48 0.34 0.70 0.69 0.79 0.91 1.42 1.37 1.08 0.71 0.45 0.35 0.56 0.65 1.08 1.52 1.75 1.02 0.70 1.19 1.00 0.48 0.36 0.36 0.36 0.38 0.44 0.50 0.68 1.02 1.26 0.98 0.92 0.89 0.87 0.98 0.94 1.09 1.18 1.51 1.78 2.19 1.63 1.27 1.36 1.37 1.72 2.00 1.88 1.73 1.79 1.40 1.42 1.52 1.25 2.55 2.51 1.41 1.30 1.62 1.48 1.25 1.06 1.03 1.12 1.11 1.12 1.21 0.98 0.89 0.71 0.67 0.69 0.71
2.23 1.98 2.15 2.09 2.04 1.59 1.49 1.20 1.40 1.45 0.82 0.73 0.62 0.23 0.28 0.30 0.60 0.56 0.69 0.42 0.35 0.42 0.80 1.04 1.42 1.89 1.62 0.93 0.52 0.47 0.76 0.63 0.77 0.70 0.63 0.52 0.38 0.43 0.37 0.26 0.31 0.39 0.45 0.60 0.66 0.57 0.62 0.63 0.88 1.34 1.58 1.35 1.94 2.57 2.58 2.41 2.41 2.15 2.09 1.95 1.94 2.28 1.55 1.23 1.19 1.19 1.26 1.35 1.38 1.10 1.29 1.48 0.64 0.51 0.47 0.42 0.41 0.43 0.50 0.55 0.39 0.44 0.57 0.75 0.90
1.32 1.80 1.97 2.32 2.21 2.01 1.68 2.03 1.62 1.33 1.57 1.54 1.39 1.24 0.90 0.51 0.41 0.70 0.85 1.13 0.97 0.93 2.78 3.00 2.19 1.25 0.92 1.38 0.48 0.19 0.17 0.18 0.22 0.23 0.29 0.33 0.38 0.31 0.32 0.30 0.20 0.28 0.55 0.30 0.20 0.23 0.48 0.41 0.65 1.36 1.73 0.81 0.74 0.35 0.40 0.47 0.88 0.85 0.85 0.96 1.07 1.94 2.28 1.51 1.73 1.64 1.52 1.45 1.29 1.66 1.69 1.28 1.42 0.80 0.36 0.33 0.31 0.53 0.55 0.57 0.58 0.87 1.11 0.92 0.60
0.81 1.24 1.63 1.56 1.19 1.78 2.34 2.39 1.09 0.56 0.59 0.74 0.65 0.73 1.32 1.90 2.06 2.06 1.51 0.79 0.97 0.59 0.80 0.57 0.35 0.27 0.26 0.29 0.40 0.43 0.26 0.27 0.26 0.25 0.22 0.22 0.26 0.37 0.34 0.19 0.18 0.19 0.46 0.50 0.51 0.61 0.92 1.25 1.09 0.86 0.87 0.54 0.32 0.36 0.49 0.55 0.31 0.83 1.58 1.40 1.44 1.20 0.96 1.17 1.02 1.27 1.28 1.60 1.46 0.95 0.98 0.91 1.04 1.15 1.18 0.76 0.34 0.34 0.36 0.34 0.49 0.59 0.87 0.79 0.76
0.51 0.82 0.94 0.83 1.01 0.66 0.60 1.51 2.45 2.25 2.49 3.02 2.68 2.53 2.62 2.62 2.80 3.07 2.01 0.53 0.32 0.32 0.37 0.33 0.34 0.34 0.34 0.61 0.92 0.80 0.87 0.88 1.44 2.17 2.17 1.49 0.30 0.49 0.23 0.26 0.36 0.31 0.53 0.57 0.60 0.70 1.52 1.51 1.03 1.01 0.68 1.02 0.99 0.66 0.66 1.95 1.53 0.87 1.37 1.37 1.49 1.55 1.00 0.86 0.69 0.50 0.58 0.88 0.85 0.59 0.46 0.28 0.34 0.39 0.54 0.75 0.84 0.77 0.76 0.84 0.76 0.61 0.56 0.58 0.45
0.25 0.20 0.24 0.67 0.75 1.06 1.08 0.55 0.82 1.14 0.92 0.58 0.81 1.03 0.73 0.40 0.48 0.46 0.48 0.40 0.60 0.88 0.87 1.12 1.05 0.90 0.65 0.82 1.26 2.17 2.74 2.47 1.20 0.76 0.45 0.52 0.65 0.80 0.89 1.30 0.94 1.12 1.93 1.52 1.26 0.51 0.39 0.69 0.95 0.69 0.55 0.48 0.26 0.51 0.70 0.60 0.53 0.42 0.48 0.41 0.29 0.59 0.36 0.36 0.60 0.99 0.58 0.40 0.44 1.10 1.20 1.01 0.58 0.29 0.22 0.18 0.18 0.19 0.24 0.46 0.28 0.26 0.17 0.26 0.55
0.24 0.26 0.19 0.21 0.39 0.66 1.20 0.73 0.60 0.82 1.47 1.53 0.94 0.67 0.63 1.05 1.62 1.24 1.01 1.14 1.18 1.18 1.77 2.13 1.89 1.45 1.45 1.36 0.93 0.82 0.59 0.45 0.43 0.43 0.28 0.20 0.37 0.52 1.07 1.33 1.67 1.60 1.36 1.57 1.33 1.38 1.24 1.12 1.29 1.37 0.75 0.56 0.74 1.36 1.57 1.03 1.17 1.09 1.22 1.16 0.53 0.59 1.15 1.40 1.46 1.20 1.00 0.88 0.65 0.29 0.50 0.42 0.31 0.17 0.17 0.14 0.18 0.14 0.27 0.65 0.97 0.92 0.88 0.83 0.87
0.26 0.33 0.59 0.72 0.47 0.56 0.78 1.06 0.89 0.92 1.14 1.88 2.00 1.66 1.59 1.10 1.06 1.81 1.86 1.44 0.85 0.99 1.16 1.10 1.46 1.68 1.24 1.26 1.25 1.02 0.64 0.40 0.42 0.62 0.92 1.27 1.44 1.28 0.99 0.82 1.09 1.09 0.78 0.75 0.87 1.09 0.81 1.34 1.65 1.52 1.73 1.14 1.29 1.25 1.61 1.25 0.94 0.66 0.64 1.23 1.03 0.59 0.73 1.35 2.14 1.80 0.88 0.63 0.32 0.19 0.18 0.25 0.46 0.48 0.55 1.06 1.51 1.16 0.78 0.77 0.63 0.64 0.62 0.66 0.71
0.47 0.27 0.19 0.31 0.39 0.67 0.24 0.30 0.32 0.66 1.16 1.47 1.16 1.52 1.40 1.76 1.78 1.58 1.68 1.72 1.67 1.36 1.16 1.13 1.43 1.49 1.21 1.46 1.07 1.13 1.59 1.71 1.97 1.97 1.65 1.61 1.64 1.55 1.25 1.06 1.15 1.14 1.18 1.23 1.57 1.60 1.58 1.60 1.20 0.84 0.90 1.15 0.94 0.69 0.70 0.87 0.70 0.73 0.86 0.78 0.78 0.72 0.35 0.48 0.69 1.02 1.34 1.16 0.74 0.40 0.53 0.82 1.18 1.10 0.98 1.26 1.30 0.97 0.73 0.71 0.55 0.51 0.69 0.73 0.63
1.21 1.25 1.09 0.89 0.52 0.46 0.46 0.49 0.37 0.38 0.33 0.54 0.85 2.23 1.55 1.43 1.73 1.45 1.84 2.17 1.74 1.60 1.49 1.21 1.33 1.53 1.59 1.66 1.53 1.58 1.71 1.74 1.39 1.10 0.88 1.31 1.44 0.97 0.85 0.87 0.87 0.84 0.65 0.65 0.61 0.63 0.58 0.41 0.56 0.64 0.55 0.70 0.49 0.37 0.29 0.35 0.48 0.45 0.43 0.61 0.67 0.77 0.82 0.87 0.72 0.70 1.35 1.42 1.32 1.27 1.36 1.38 1.57 1.34 1.21 0.94 0.90 0.81 0.81 0.76 0.78 0.65 0.72 0.82 0.83